Date,TemperatureHighF,TemperatureAvgF,TemperatureLowF,DewpointHighF,DewpointAvgF,DewpointLowF,HumidityHigh,HumidityAvg,HumidityLow,PressureMaxIn,PressureMinIn,WindSpeedMaxMPH,WindSpeedAvgMPH,GustSpeedMaxMPH,PrecipitationSumIn
2013-6-1,69,63,59,-100,-100,-100,0,0,100,30.04,29.98,15,10,24,0.00
2013-6-2,67,63,60,-100,-100,-100,0,0,100,29.99,29.88,19,11,31,0.00
2013-6-3,64,62,60,-100,-100,-100,0,0,100,29.90,29.82,13,9,24,0.00
2013-6-4,69,62,58,-100,-100,-100,0,0,100,30.08,29.80,15,-14,23,0.00
2013-6-5,67,61,56,-100,-100,-100,0,0,100,30.21,30.07,9,-58,13,0.00
2013-6-6,66,60,56,-100,-100,-100,0,0,100,30.21,30.09,13,7,20,0.00
2013-6-7,65,58,55,-100,-100,-100,0,0,100,30.09,29.79,20,13,28,0.00
2013-6-8,66,63,60,-100,-100,-100,0,0,100,30.01,29.58,19,12,33,0.00
2013-6-9,73,66,59,-100,-100,-100,0,0,100,30.17,30.01,11,6,19,0.00
2013-6-10,68,62,57,-100,-100,-100,0,0,100,30.19,30.00,14,6,20,0.00
2013-6-11,65,62,59,-100,-100,-100,0,0,100,30.01,29.58,18,10,26,0.00
2013-6-12,70,64,60,-100,-100,-100,0,0,100,29.79,29.58,14,9,26,0.00
2013-6-13,65,61,56,-100,-100,-100,0,0,100,29.83,29.59,26,9,35,0.00
2013-6-14,60,56,53,-100,-100,-100,0,0,100,29.77,29.50,27,17,39,0.00
2013-6-15,70,64,57,-100,-100,-100,0,0,100,29.98,29.75,11,6,15,0.00
2013-6-16,68,63,58,-100,-100,-100,0,0,100,29.98,29.80,13,8,22,0.00
2013-6-17,71,66,62,-100,-100,-100,0,0,100,29.95,29.81,14,0,19,0.00
2013-6-18,70,63,59,-100,-100,-100,0,0,100,29.93,29.86,11,5,15,0.00
2013-6-19,67,62,58,-100,-100,-100,0,0,100,30.16,29.82,17,9,27,0.00
2013-6-20,69,64,57,-100,-100,-100,0,0,100,30.29,30.16,10,-16,17,0.00
2013-6-22,70,67,64,-100,-100,-100,0,0,100,30.27,30.19,11,7,17,0.00
2013-6-23,71,67,63,-100,-100,-100,0,0,100,30.22,30.10,15,8,24,0.00
2013-6-28,70,68,66,-100,-100,-100,0,0,100,29.78,29.60,15,10,27,0.00
2013-6-29,69,67,65,-100,-100,-100,0,0,100,29.79,29.59,15,10,24,0.00
2013-6-30,71,67,65,-100,-100,-100,0,0,100,30.00,29.78,13,8,19,0.00